TimeCDT,TemperatureF,Dew PointF,Humidity,Sea Level PressureIn,VisibilityMPH,Wind Direction,Wind SpeedMPH,Gust SpeedMPH,PrecipitationIn,Events,Conditions,WindDirDegrees,DateUTC
12:53 AM,69.1,64.0,84,30.02,10.0,East,8.1,-,N/A,,Clear,100,2013-08-23 05:53:00
1:53 AM,66.9,64.9,93,30.01,10.0,ESE,6.9,-,N/A,,Clear,110,2013-08-23 06:53:00
2:53 AM,66.9,64.9,93,30.01,10.0,ESE,8.1,-,N/A,,Clear,120,2013-08-23 07:53:00
3:53 AM,66.9,64.9,93,29.99,10.0,ESE,8.1,-,N/A,,Clear,120,2013-08-23 08:53:00
4:53 AM,64.9,64.9,100,29.99,7.0,ESE,3.5,-,N/A,,Clear,120,2013-08-23 09:53:00
5:53 AM,64.9,64.0,97,29.98,7.0,East,3.5,-,N/A,,Clear,90,2013-08-23 10:53:00
6:53 AM,64.9,64.9,100,29.97,5.0,SE,6.9,-,N/A,,Partly Cloudy,130,2013-08-23 11:53:00
7:32 AM,66.2,64.4,94,30.00,4.0,ESE,6.9,-,N/A,,Mostly Cloudy,120,2013-08-23 12:32:00
7:53 AM,66.9,66.0,97,29.96,4.0,ESE,9.2,-,N/A,,Overcast,120,2013-08-23 12:53:00
8:24 AM,66.2,66.2,100,29.99,4.0,ESE,10.4,-,N/A,,Overcast,120,2013-08-23 13:24:00
8:53 AM,68.0,66.0,93,29.96,4.0,ESE,9.2,-,N/A,,Overcast,120,2013-08-23 13:53:00
9:53 AM,71.1,66.9,87,29.96,6.0,SE,12.7,-,N/A,,Overcast,130,2013-08-23 14:53:00
10:24 AM,73.4,66.2,78,29.97,8.0,SE,12.7,-,N/A,,Scattered Clouds,130,2013-08-23 15:24:00
10:53 AM,75.0,66.9,76,29.93,9.0,ESE,12.7,-,N/A,,Mostly Cloudy,120,2013-08-23 15:53:00
11:53 AM,78.1,68.0,71,29.91,9.0,SE,17.3,-,N/A,,Mostly Cloudy,130,2013-08-23 16:53:00
12:17 PM,75.2,68.0,78,29.94,9.0,SE,13.8,-,N/A,,Overcast,130,2013-08-23 17:17:00
12:53 PM,75.0,66.9,76,29.90,9.0,SE,13.8,-,N/A,,Overcast,130,2013-08-23 17:53:00
1:02 PM,75.2,66.2,73,29.93,9.0,SE,11.5,-,N/A,,Overcast,130,2013-08-23 18:02:00
1:53 PM,79.0,66.9,66,29.87,10.0,SE,13.8,-,N/A,,Overcast,130,2013-08-23 18:53:00
2:53 PM,81.0,66.9,62,29.86,10.0,SSE,20.7,-,N/A,,Overcast,150,2013-08-23 19:53:00
3:21 PM,82.4,66.2,58,29.89,10.0,South,16.1,-,N/A,,Overcast,170,2013-08-23 20:21:00
3:53 PM,82.9,68.0,60,29.84,10.0,SSE,17.3,23.0,N/A,,Mostly Cloudy,150,2013-08-23 20:53:00
4:53 PM,84.9,68.0,57,29.82,10.0,South,16.1,-,N/A,,Scattered Clouds,170,2013-08-23 21:53:00
5:53 PM,84.0,68.0,58,29.81,10.0,SE,13.8,-,N/A,,Clear,140,2013-08-23 22:53:00
6:53 PM,84.0,68.0,58,29.78,10.0,SE,16.1,-,N/A,,Clear,140,2013-08-23 23:53:00
7:53 PM,82.0,68.0,62,29.77,10.0,SE,10.4,-,N/A,,Clear,130,2013-08-24 00:53:00
8:53 PM,79.0,69.1,72,29.78,10.0,SE,10.4,-,N/A,,Clear,130,2013-08-24 01:53:00
9:53 PM,78.1,68.0,71,29.78,10.0,SE,13.8,-,N/A,,Clear,130,2013-08-24 02:53:00
10:53 PM,75.9,68.0,76,29.78,10.0,SE,13.8,-,N/A,,Clear,130,2013-08-24 03:53:00
11:53 PM,75.9,66.9,74,29.79,10.0,ESE,9.2,-,N/A,,Clear,120,2013-08-24 04:53:00